Home > Weather > Santa Cruz > Past weeks

Flag for Bolivia Past Weather in Santa Cruz, Bolivia — Yesterday and Last 2 Weeks

Now
68 °F

Clear.


Feels Like: 68 °F
Forecast: 72 / 89 °F
Wind: 9 mph from North

Location: Viru-Viru

Current Time: Jul 25, 2016 at 2:20:36 AM

Latest Report: Jul 25, 2016 at 2:00 AM


Visibility: 4 mi

Pressure: 29.89 "Hg

Humidity: 78%

Dew Point: 61 °F

Location of Santa CruzLocation

Past Weather in Santa Cruz — Graph

°F

Santa Cruz Temperature Yesterday

Maximum temperature yesterday: 90 °F (at 1:00 PM)
Minimum temperature yesterday: 64 °F (at 3:00 AM)
Average temperature yesterday: 75 °F

High & Low Weather Summary for the Past Weeks

 TemperatureHumidityPressure
High91 °F (Jul 13, 3:00 PM)100% (Jul 13, 1:00 AM)30.24 "Hg (Jul 13, 1:00 AM)
Low50 °F (Jul 22, 7:00 AM)26% (Jul 20, 4:00 PM)29.74 "Hg (Jul 11, 3:00 PM)
Average71 °F62%29.97 "Hg
* Reported Jul 10 1:00 AM — Jul 25 1:00 AM, Santa Cruz, Weather by CustomWeather, © 2016

Note: Actual official high and low records may vary slightly from our data, if they occured in-between our weather recording intervals... More about our weather records

Advertising

Santa Cruz Weather History for the Previous 24 Hours

Scroll right to see more
 ConditionsComfort  
Time TempWeatherWind HumidityBarometerVisibility
1:00 AM
Mon, Jul 25
70 °FClear.9 mph69%29.89 "Hg4 mi
12:00 AM68 °FPassing clouds.7 mph73%29.89 "HgN/A
11:00 PM
Sun, Jul 24
68 °FClear.7 mph73%29.92 "HgN/A
10:00 PM68 °FClear.6 mph78%29.89 "HgN/A
9:00 PM72 °FClear.7 mph65%29.89 "Hg3 mi
8:00 PM73 °FClear.6 mph57%29.89 "Hg3 mi
7:00 PM77 °FPassing clouds.8 mph51%29.89 "Hg5 mi
6:00 PM81 °FPassing clouds.9 mph42%29.89 "Hg4 mi
5:00 PM86 °FScattered clouds.14 mph38%29.86 "Hg5 mi
4:00 PM88 °FPartly sunny.17 mph35%29.86 "Hg5 mi
3:00 PM90 °FPartly sunny.17 mph33%29.89 "Hg5 mi
2:00 PM90 °FPartly sunny.23 mph38%29.92 "Hg5 mi
1:00 PM90 °FScattered clouds.23 mph38%29.95 "Hg5 mi
12:00 PM88 °FScattered clouds.23 mph38%29.98 "Hg5 mi
11:00 AM86 °FScattered clouds.17 mph46%29.98 "Hg5 mi
10:00 AM79 °FClear.15 mph65%29.98 "Hg5 mi
9:00 AM72 °FClear.12 mph83%29.98 "Hg4 mi
8:00 AM68 °FClear.8 mph94%29.95 "Hg3 mi
7:00 AM66 °FClear.7 mph100%29.95 "Hg3 mi
6:00 AM64 °FClear.8 mph100%29.92 "Hg6 mi
5:00 AM64 °FFog.7 mph94%29.89 "Hg3 mi
4:00 AM64 °FClear.8 mph100%29.89 "Hg5 mi
3:00 AM64 °FClear.8 mph94%29.89 "Hg5 mi
2:00 AM66 °FClear.8 mph94%29.89 "Hg5 mi
Weather by CustomWeather, © 2016

See weather overviewHow to use our weather pages